THOR ABLESTAR DEB, 230

Orbit data source: Space-Track

THOR ABLESTAR DEB, 230 is space debris in LEO originally from a launch on Thu, 29 Jun 1961 UTC launched from the Air Force Eastern Test Range (AFETR). Debris objects in space refer to the collection of defunct objects orbiting the Earth. Examples of debris include non-operational satellites, rocket bodies, and fragments generated from explosions, collisions, or faulty payload assembly.

Loading next visibility...
Identifier
230, 1961-015BN
Orbit
LEO
Country
Flag of USUS
Related business
Manufacturer
Unknown
Mission
Spacecraft
Bus & Motor
Unknown
Mass
Unknown
Launch date (UTC)
1961-06-29 (64 years ago)
Launch vehicle
Unknown
Launch site
Air Force Eastern Test Range (AFETR)
Object type
Payload
Rocket body
Debris
Shape & HBR
Unknown shape, 0.2 m
Radar Cross Section
Small (<0.1 m²)

Expand to show TLE details & history
Last TLE update: 4 hours ago

TLE from 4 hours ago
0 THOR ABLESTAR DEB
1 00230U 61015BN  25292.95633654  .00000225  00000-0  20992-3 0  9993
2 00230  66.8823 279.5404 0094900 342.2405  17.5367 13.96728008272209
Epoch: 2025-10-19T22:57Z
TLE epoch observation values (Epoch: 2025-10-19T22:57:07.477Z)
Latitude
0.00001°
Longitude
-93.40631°
Altitude
841.383 km
Speed
7.466 km/s
True Right ascension
18h 38m 09s
True Declination
0° 00' 00"
Sunlit
Object was in daylight at epoch
Visualization orbit readout
Latitude
Unknown
Longitude
Unknown
Altitude
Unknown
Speed
Unknown
Apparent Right ascension
Unknown
Apparent Declination
Unknown
Sunlit
N/A
Visualization observer readout
Local Sidereal Time
22:06:25
Azimuth
Unknown
Elevation
Unknown
Doppler factor
Unknown
Orbital elements
Apogee altitude
972.63 km
Perigee altitude
834.424 km
Semi-major axis
7,281.664 km
Eccentricity
0.00949
Inclination
66.8823°
RAAN
279.5404°
Arg. of periapsis
342.2405°
True anomaly
17.86812°
Mean anomaly
17.5367°
Eccentric anomaly
17.70203°
Mean motion
3.49299 °/min
Orbital period
103.06 mins
BSTAR
0.00020992

Documentation

Showing up to 5 results
|